Waarnemingen

Advertentie
Mijn weer
Little Rissington, Groot Brittannië (3647): temperatuur & dauwpunt: 31.05.2020 01:00:00 - 06.06.2020 01:00:00 (BST)Little Rissington, Groot Brittannië (3647): temperatuur -20cm & temperatuur -100cm: 31.05.2020 01:00:00 - 06.06.2020 01:00:00 (BST)Little Rissington, Groot Brittannië (3647): windsnelheid & windstoten: 31.05.2020 01:00:00 - 06.06.2020 01:00:00 (BST)Little Rissington, Groot Brittannië (3647): windrichting: 31.05.2020 01:00:00 - 06.06.2020 01:00:00 (BST)Little Rissington, Groot Brittannië (3647): luchtdruk: 31.05.2020 01:00:00 - 06.06.2020 01:00:00 (BST)Little Rissington, Groot Brittannië (3647): zicht: 31.05.2020 01:00:00 - 06.06.2020 01:00:00 (BST)Little Rissington, Groot Brittannië (3647): neerslag: 31.05.2020 01:00:00 - 06.06.2020 01:00:00 (BST)
Datum & Tijd tt [°C] td [°C] tt -20cm [°C] tt -100cm [°C] ff [km/u] ff [kn] fx [km/u] fx [kn] dd ppp [hPa] vv [km] rr [mm]
06.06.2020 01:00:00 6,6 2,5 - - 24 13 - - WNW 999,0 35 0,0
06.06.2020 00:00:00 7,2 2,8 - - 21 11 - - W 998,9 35 0,0
05.06.2020 23:00:00 7,6 2,2 - - 15 8 - - WNW 999,0 35 0,0
05.06.2020 22:00:00 8,9 2,4 - - 21 11 - - WNW 998,5 35 0,0
05.06.2020 21:00:00 10,2 1,4 - - 24 13 - - W 998,0 40 0,0
05.06.2020 20:00:00 11,6 0,2 - - 28 15 - - WNW 997,6 40 0,0
05.06.2020 19:00:00 12,4 2,0 - - 26 14 52 28 WNW 997,3 40 0,0
05.06.2020 18:00:00 13,6 1,3 - - 35 19 57 31 NW 997,2 40 0,0
05.06.2020 17:00:00 12,2 2,6 - - 35 19 67 36 WNW 997,5 40 0,0
05.06.2020 16:00:00 15,2 1,5 - - 34 18 52 28 NW 996,5 40 0,0
05.06.2020 15:00:00 14,7 3,9 - - 31 17 46 25 WNW 996,8 45 0,0
05.06.2020 14:00:00 12,7 2,6 - - 26 14 - - NNW 996,9 40 0,0
05.06.2020 13:00:00 13,0 2,9 - - 21 11 - - NNW 996,5 35 0,0
05.06.2020 12:00:00 11,4 3,7 - - 29 16 - - NW 996,8 35 0,0
05.06.2020 11:00:00 10,6 4,5 - - 26 14 - - NNW 996,9 35 0,0
05.06.2020 10:00:00 10,5 3,5 16,7 15,0 26 14 46 25 NW 996,6 35 0,0
05.06.2020 09:00:00 10,8 3,9 - - 26 14 - - NW 996,6 40 0,0
05.06.2020 08:00:00 9,7 3,9 - - 28 15 46 25 WNW 996,5 40 0,0
05.06.2020 07:00:00 9,3 3,8 - - 28 15 - - NW 996,2 40 0,0
05.06.2020 06:00:00 8,9 4,5 - - 26 14 - - WNW 996,2 40 0,0
05.06.2020 05:00:00 8,6 5,2 - - 26 14 - - NW 996,5 40 0,0
05.06.2020 04:00:00 9,8 7,9 - - 22 12 - - WNW 996,7 40 0,0
05.06.2020 03:00:00 9,5 8,6 - - 9 5 - - W 997,3 29 0,0
05.06.2020 02:00:00 9,8 8,7 - - 13 7 - - W 997,9 35 0,0
05.06.2020 01:00:00 9,6 8,3 - - 11 6 - - WZW 998,5 35 0,0
05.06.2020 00:00:00 9,6 8,1 - - 11 6 - - W 999,3 30 0,0
04.06.2020 23:00:00 9,8 8,1 - - 15 8 - - W 1000,0 30 0,0
04.06.2020 22:00:00 9,9 8,2 - - 16 9 - - W 1000,6 45 0,0
04.06.2020 21:00:00 10,1 8,3 - - 15 8 - - W 1000,9 40 0,0
04.06.2020 20:00:00 10,5 9,3 - - 13 7 - - W 1001,2 35 0,4
04.06.2020 19:00:00 9,7 9,1 - - 11 6 - - NW 1001,6 3,0 1,0
04.06.2020 18:00:00 10,4 8,6 - - 21 11 - - WNW 1001,8 12 0,0
04.06.2020 17:00:00 11,6 6,6 - - 21 11 - - WNW 1001,8 35 0,0
04.06.2020 16:00:00 12,2 5,3 - - 24 13 - - NW 1002,2 40 0,0
04.06.2020 15:00:00 11,8 6,6 - - 11 6 - - W 1002,6 30 0,0
04.06.2020 14:00:00 12,8 7,6 - - 11 6 - - W 1003,2 30 0,0
04.06.2020 13:00:00 12,1 6,6 - - 11 6 - - NW 1003,9 35 0,0
04.06.2020 12:00:00 11,3 6,0 - - 18 10 - - WNW 1004,5 35 0,0
04.06.2020 11:00:00 11,4 6,4 - - 15 8 - - NNW 1004,7 35 0,0
04.06.2020 10:00:00 10,1 6,6 17,4 15,0 13 7 - - NNW 1005,4 30 0,0
04.06.2020 09:00:00 9,7 7,3 - - 18 10 - - N 1005,8 26 0,0
04.06.2020 08:00:00 9,0 6,9 - - 22 12 - - N 1005,9 28 0,0
04.06.2020 07:00:00 8,4 6,9 - - 18 10 - - N 1006,2 23 0,0
04.06.2020 06:00:00 7,8 6,8 - - 21 11 - - N 1006,2 25 0,0
04.06.2020 05:00:00 7,6 6,0 - - 22 12 - - N 1006,4 24 0,0
04.06.2020 04:00:00 7,7 6,1 - - 22 12 - - N 1006,7 28 0,0
04.06.2020 03:00:00 8,3 6,4 - - 21 11 - - N 1007,2 30 0,0
04.06.2020 02:00:00 8,5 7,2 - - 21 11 - - N 1008,1 22 0,0
04.06.2020 01:00:00 8,6 7,3 - - 22 12 - - N 1008,6 35 0,0
04.06.2020 00:00:00 8,9 8,1 - - 26 14 - - N 1008,8 - 0,2
03.06.2020 23:00:00 9,0 8,7 - - 26 14 - - NNO 1009,4 - 0,2
03.06.2020 22:00:00 9,4 9,0 - - 28 15 - - NNO 1009,5 - 0,0
03.06.2020 21:00:00 9,9 9,6 - - 28 15 - - NNO 1008,9 - 0,2
03.06.2020 20:00:00 10,6 10,4 - - 28 15 - - NNO 1008,9 - 0,4
03.06.2020 19:00:00 11,8 10,7 - - 28 15 - - NNO 1008,4 - 0,0
03.06.2020 18:00:00 11,8 10,7 - - 24 13 - - NNO 1008,4 - 0,2
03.06.2020 17:00:00 12,5 11,7 - - 16 9 - - NO 1008,5 - 0,4
03.06.2020 16:00:00 12,5 11,8 - - 16 9 - - NO 1008,7 - 0,6
03.06.2020 15:00:00 13,4 12,1 - - 24 13 - - NO 1008,6 - 0,6
03.06.2020 14:00:00 14,4 12,1 - - 21 11 - - NO 1008,6 - 0,2
03.06.2020 13:00:00 14,6 11,4 - - 21 11 - - NO 1008,8 17 0,0
03.06.2020 12:00:00 14,7 10,1 - - 21 11 - - NO 1008,9 24 0,0
03.06.2020 11:00:00 14,7 8,3 - - 24 13 - - NNO 1008,9 30 0,0
03.06.2020 10:00:00 15,0 9,0 18,0 14,7 21 11 - - NO 1009,0 28 0,0
03.06.2020 09:00:00 13,7 11,2 - - 21 11 - - NNO 1009,1 24 0,0
03.06.2020 08:00:00 13,1 9,9 - - 15 8 - - N 1009,6 15 0,0
03.06.2020 07:00:00 14,2 7,9 - - 11 6 - - NW 1009,8 24 0,0
03.06.2020 06:00:00 15,1 6,9 - - 21 11 - - NNO 1009,4 35 0,0
03.06.2020 05:00:00 15,4 6,7 - - 18 10 - - N 1009,6 35 0,0
03.06.2020 04:00:00 15,1 7,5 - - 21 11 - - NNW 1010,4 30 0,0
03.06.2020 03:00:00 16,4 7,2 - - 18 10 - - NNW 1011,0 35 0,0
03.06.2020 02:00:00 15,5 7,5 - - 15 8 - - NW 1012,0 29 0,0
03.06.2020 01:00:00 16,7 7,4 - - 16 9 - - NNW 1012,6 35 0,0
03.06.2020 00:00:00 17,0 7,0 - - 15 8 - - NNW 1013,3 35 0,0
02.06.2020 23:00:00 16,8 6,0 - - 11 6 - - N 1013,9 35 0,0
02.06.2020 22:00:00 17,6 7,0 - - 9 5 - - NNW 1014,3 35 0,0
02.06.2020 21:00:00 18,6 4,9 - - 4 2 - - ONO 1014,4 35 0,0
02.06.2020 20:00:00 21,3 6,2 - - 11 6 - - N 1014,4 35 0,0
02.06.2020 19:00:00 22,4 5,4 - - 11 6 - - NNO 1014,8 35 0,0
02.06.2020 18:00:00 23,0 5,3 - - 13 7 - - NNO 1015,5 35 0,0
02.06.2020 17:00:00 22,7 5,6 - - 13 7 - - NNW 1016,2 35 0,0
02.06.2020 16:00:00 22,7 6,3 - - 9 5 - - NNW 1016,9 35 0,0
02.06.2020 15:00:00 22,3 6,3 - - 9 5 - - N 1017,7 35 0,0
02.06.2020 14:00:00 21,6 5,3 - - 16 9 - - NNO 1018,5 40 0,0
02.06.2020 13:00:00 20,8 5,4 - - 13 7 - - NNO 1019,3 40 0,0
02.06.2020 12:00:00 19,4 5,6 - - 18 10 - - NNO 1019,9 40 0,0
02.06.2020 11:00:00 18,8 5,6 - - 13 7 - - N 1020,3 35 0,0
02.06.2020 10:00:00 16,8 6,7 - - 13 7 - - N 1021,0 30 -
02.06.2020 09:00:00 15,1 7,8 - - 13 7 - - NNO 1021,5 35 -
02.06.2020 08:00:00 13,2 8,9 - - 15 8 - - NNO 1021,9 29 0,0
02.06.2020 07:00:00 10,9 8,6 - - 13 7 - - NNO 1022,2 26 0,0
02.06.2020 06:00:00 10,0 8,3 - - 21 11 - - NNO 1022,1 24 0,0
02.06.2020 05:00:00 9,3 7,5 - - 21 11 - - NNO 1022,1 26 0,0
02.06.2020 04:00:00 9,5 5,6 - - 15 8 - - NNO 1022,3 35 0,0
02.06.2020 03:00:00 10,2 5,2 - - 18 10 - - NNO 1022,6 40 0,0
02.06.2020 02:00:00 11,2 5,6 - - 18 10 - - NO 1022,9 35 0,0
02.06.2020 01:00:00 12,8 6,5 - - 16 9 - - NO 1023,1 35 0,0
02.06.2020 00:00:00 14,3 7,6 - - 22 12 - - NO 1022,9 35 0,0
01.06.2020 23:00:00 15,6 8,6 - - 22 12 - - NO 1022,6 35 0,0
01.06.2020 22:00:00 15,1 9,3 - - 15 8 - - NNO 1022,4 35 0,0
01.06.2020 21:00:00 19,0 9,6 - - 15 8 - - ONO 1021,5 35 0,0
01.06.2020 20:00:00 21,1 8,4 - - 15 8 - - ONO 1021,0 35 0,0
01.06.2020 19:00:00 22,5 8,3 - - 13 7 - - ONO 1021,0 22 0,0
01.06.2020 18:00:00 22,6 7,5 - - 13 7 - - NO 1021,1 40 0,0
01.06.2020 17:00:00 22,2 7,4 - - 16 9 - - O 1021,4 4,5 0,0
01.06.2020 16:00:00 22,4 7,8 - - 21 11 - - ONO 1021,7 40 0,0
01.06.2020 15:00:00 22,9 8,4 - - 18 10 - - ONO 1022,0 40 0,0
01.06.2020 14:00:00 22,2 8,5 - - 16 9 - - ONO 1022,3 35 0,0
01.06.2020 13:00:00 20,4 7,8 - - 22 12 - - ONO 1022,6 40 0,0
01.06.2020 12:00:00 20,5 8,6 - - 16 9 - - ONO 1023,0 40 0,0
01.06.2020 11:00:00 19,6 9,6 - - 18 10 - - NO 1023,2 35 0,0
01.06.2020 10:00:00 18,1 9,9 17,7 14,5 22 12 - - NO 1023,4 35 0,0
01.06.2020 09:00:00 15,8 9,5 - - 21 11 - - NO 1023,8 35 0,0
01.06.2020 08:00:00 13,2 8,8 - - 22 12 - - NO 1024,0 30 0,0
01.06.2020 07:00:00 10,9 7,5 - - 21 11 - - NO 1023,9 35 0,0
01.06.2020 06:00:00 9,4 6,7 - - 21 11 - - NNO 1024,1 30 0,0
01.06.2020 05:00:00 8,6 6,0 - - 21 11 - - NO 1023,9 35 0,0
01.06.2020 04:00:00 9,0 5,8 - - 16 9 - - NO 1024,0 35 0,0
01.06.2020 03:00:00 9,4 5,2 - - 15 8 - - NO 1024,2 40 0,0
01.06.2020 02:00:00 11,3 5,4 - - 16 9 - - ONO 1024,0 40 0,0
01.06.2020 01:00:00 11,5 5,4 - - 16 9 - - O 1024,2 40 0,0
01.06.2020 00:00:00 12,8 5,4 - - 16 9 - - O 1024,0 40 0,0
31.05.2020 23:00:00 14,1 5,4 - - 22 12 - - O 1023,7 40 0,0
31.05.2020 22:00:00 15,3 5,3 - - 21 11 - - O 1023,2 40 0,0
31.05.2020 21:00:00 17,3 5,2 - - 16 9 - - O 1022,5 45 0,0
31.05.2020 20:00:00 19,5 5,5 - - 21 11 - - O 1021,7 40 0,0
31.05.2020 19:00:00 21,0 5,6 - - 24 13 - - O 1021,3 40 0,0
31.05.2020 18:00:00 22,2 5,6 - - 24 13 - - O 1021,0 35 0,0
31.05.2020 17:00:00 22,4 5,0 - - 22 12 - - O 1021,0 35 0,0
31.05.2020 16:00:00 23,0 4,8 - - 26 14 - - OZO 1020,9 40 0,0
31.05.2020 15:00:00 23,3 6,2 - - 26 14 - - O 1021,2 40 0,0
31.05.2020 14:00:00 23,4 7,1 - - 26 14 - - O 1021,5 40 0,0
31.05.2020 13:00:00 23,3 8,5 - - 24 13 - - O 1021,8 30 0,0
31.05.2020 12:00:00 21,8 8,4 - - 18 10 - - OZO 1022,0 35 0,0
31.05.2020 11:00:00 19,8 10,2 - - 16 9 - - ONO 1022,3 29 0,0
31.05.2020 10:00:00 17,8 10,1 17,5 14,4 15 8 - - O 1022,4 29 0,0
31.05.2020 09:00:00 15,5 9,2 - - 21 11 - - ONO 1022,6 24 0,0
31.05.2020 08:00:00 13,6 8,3 - - 15 8 - - ONO 1022,6 26 0,0
31.05.2020 07:00:00 11,8 6,2 - - 16 9 - - ONO 1022,6 29 0,0
31.05.2020 06:00:00 10,9 5,5 - - 16 9 - - ONO 1022,3 29 0,0
31.05.2020 05:00:00 10,1 5,1 - - 18 10 - - ONO 1022,2 29 0,0
31.05.2020 04:00:00 10,9 5,6 - - 22 12 - - ONO 1022,2 29 0,0
31.05.2020 03:00:00 11,2 5,6 - - 21 11 - - ONO 1022,7 30 0,0
31.05.2020 02:00:00 11,8 5,4 - - 18 10 - - ONO 1022,9 30 0,0
31.05.2020 01:00:00 12,3 4,8 - - 18 10 - - O 1023,1 35 0,0

tt = temperatuur
td = dauwpunt
tt -20cm = temperatuur -20cm
tt -100cm = temperatuur -100cm
ff = windsnelheid
fx = windstoten
dd = windrichting
ppp = luchtdruk
vv = zicht
rr = neerslag

Weerstations in de omgeving